Time,TemperatureF,DewpointF,PressureIn,WindDirection,WindDirectionDegrees,WindSpeedMPH,WindSpeedGustMPH,Humidity,HourlyPrecipIn,Conditions,Clouds,dailyrainin,SolarRadiationWatts/m^2,SoftwareType,DateUTC
2013-09-18 00:01:00,64.2,51.5,29.78,NW,304,4.0,6.0,63,0.00,,,0.00,0.0,WUHU216DAVISVP2,2013-09-18 07:01:00,
2013-09-18 00:06:00,64.2,51.9,29.78,NW,304,4.0,6.0,64,0.00,,,0.00,0.0,WUHU216DAVISVP2,2013-09-18 07:06:00,
2013-09-18 00:11:00,64.1,51.8,29.78,NW,304,3.0,6.0,64,0.00,,,0.00,0.0,WUHU216DAVISVP2,2013-09-18 07:11:00,
2013-09-18 00:16:00,64.0,51.7,29.77,NW,304,2.0,5.0,64,0.00,,,0.00,0.0,WUHU216DAVISVP2,2013-09-18 07:16:00,
2013-09-18 00:21:00,63.9,51.6,29.78,NW,304,3.0,5.0,64,0.00,,,0.00,0.0,WUHU216DAVISVP2,2013-09-18 07:21:00,
2013-09-18 00:26:00,63.8,52.0,29.78,NW,304,2.0,5.0,65,0.00,,,0.00,0.0,WUHU216DAVISVP2,2013-09-18 07:26:00,
2013-09-18 00:31:00,63.8,52.0,29.78,NW,304,3.0,5.0,65,0.00,,,0.00,0.0,WUHU216DAVISVP2,2013-09-18 07:31:00,
2013-09-18 00:36:00,63.7,51.9,29.78,NW,304,2.0,5.0,65,0.00,,,0.00,0.0,WUHU216DAVISVP2,2013-09-18 07:36:00,
2013-09-18 00:41:00,63.7,52.3,29.78,NW,304,2.0,5.0,66,0.00,,,0.00,0.0,WUHU216DAVISVP2,2013-09-18 07:41:00,
2013-09-18 00:46:00,63.7,52.3,29.78,NW,304,3.0,5.0,66,0.00,,,0.00,0.0,WUHU216DAVISVP2,2013-09-18 07:46:00,
2013-09-18 00:51:00,63.8,52.4,29.78,NW,305,3.0,6.0,66,0.00,,,0.00,0.0,WUHU216DAVISVP2,2013-09-18 07:51:00,
2013-09-18 00:56:00,63.9,52.5,29.78,NW,305,3.0,6.0,66,0.00,,,0.00,0.0,WUHU216DAVISVP2,2013-09-18 07:56:00,
2013-09-18 01:01:00,63.8,52.0,29.78,NW,321,2.0,6.0,65,0.00,,,0.00,0.0,WUHU216DAVISVP2,2013-09-18 08:01:00,
2013-09-18 01:06:00,63.8,52.0,29.78,NW,306,4.0,6.0,65,0.00,,,0.00,0.0,WUHU216DAVISVP2,2013-09-18 08:06:00,
2013-09-18 01:11:00,63.7,52.3,29.78,NW,306,2.0,6.0,66,0.00,,,0.00,0.0,WUHU216DAVISVP2,2013-09-18 08:11:00,
2013-09-18 01:16:00,63.5,52.1,29.78,NW,306,2.0,6.0,66,0.00,,,0.00,0.0,WUHU216DAVISVP2,2013-09-18 08:16:00,
2013-09-18 01:21:00,63.4,51.8,29.78,NW,306,1.0,6.0,66,0.00,,,0.00,0.0,WUHU216DAVISVP2,2013-09-18 08:21:00,
2013-09-18 01:26:00,63.2,51.6,29.78,NW,306,3.0,5.0,66,0.00,,,0.00,0.0,WUHU216DAVISVP2,2013-09-18 08:26:00,
2013-09-18 01:31:00,63.1,51.6,29.78,NW,306,2.0,5.0,66,0.00,,,0.00,0.0,WUHU216DAVISVP2,2013-09-18 08:31:00,
2013-09-18 01:36:00,62.9,51.9,29.78,NW,306,2.0,5.0,67,0.00,,,0.00,0.0,WUHU216DAVISVP2,2013-09-18 08:36:00,
2013-09-18 01:41:00,62.8,51.8,29.78,NW,306,3.0,6.0,67,0.00,,,0.00,0.0,WUHU216DAVISVP2,2013-09-18 08:41:00,
2013-09-18 01:46:00,62.7,51.6,29.78,NW,306,2.0,6.0,67,0.00,,,0.00,0.0,WUHU216DAVISVP2,2013-09-18 08:46:00,
2013-09-18 01:51:00,62.7,51.6,29.78,NW,307,3.0,6.0,67,0.00,,,0.00,0.0,WUHU216DAVISVP2,2013-09-18 08:51:00,
2013-09-18 01:56:00,62.7,51.2,29.78,NW,307,3.0,6.0,66,0.00,,,0.00,0.0,WUHU216DAVISVP2,2013-09-18 08:56:00,
2013-09-18 02:01:00,62.6,51.2,29.78,NW,307,1.0,5.0,66,0.00,,,0.00,0.0,WUHU216DAVISVP2,2013-09-18 09:01:00,
2013-09-18 02:06:00,62.4,51.5,29.78,NW,307,1.0,5.0,67,0.00,,,0.00,0.0,WUHU216DAVISVP2,2013-09-18 09:06:00,
2013-09-18 02:11:00,62.2,51.3,29.78,NW,307,1.0,5.0,67,0.00,,,0.00,0.0,WUHU216DAVISVP2,2013-09-18 09:11:00,
2013-09-18 02:16:00,62.1,51.2,29.78,NW,307,3.0,5.0,67,0.00,,,0.00,0.0,WUHU216DAVISVP2,2013-09-18 09:16:00,
2013-09-18 02:21:00,62.1,51.2,29.78,NW,307,2.0,5.0,67,0.00,,,0.00,0.0,WUHU216DAVISVP2,2013-09-18 09:21:00,
2013-09-18 02:26:00,62.2,51.3,29.78,NW,307,4.0,5.0,67,0.00,,,0.00,0.0,WUHU216DAVISVP2,2013-09-18 09:26:00,
2013-09-18 02:31:00,62.2,51.3,29.78,NW,307,3.0,5.0,67,0.00,,,0.00,0.0,WUHU216DAVISVP2,2013-09-18 09:31:00,
2013-09-18 02:36:00,62.1,51.2,29.78,NW,307,4.0,5.0,67,0.00,,,0.00,0.0,WUHU216DAVISVP2,2013-09-18 09:36:00,
2013-09-18 02:41:00,62.0,51.1,29.78,NW,307,4.0,6.0,67,0.00,,,0.00,0.0,WUHU216DAVISVP2,2013-09-18 09:41:00,
2013-09-18 02:46:00,62.1,51.6,29.78,NW,307,3.0,6.0,68,0.00,,,0.00,0.0,WUHU216DAVISVP2,2013-09-18 09:46:00,
2013-09-18 02:51:00,62.0,51.5,29.77,NW,307,3.0,6.0,68,0.00,,,0.00,0.0,WUHU216DAVISVP2,2013-09-18 09:51:00,
2013-09-18 02:56:00,61.8,51.3,29.78,NW,307,3.0,6.0,68,0.00,,,0.00,0.0,WUHU216DAVISVP2,2013-09-18 09:56:00,
2013-09-18 03:01:00,61.6,51.1,29.77,NW,307,2.0,5.0,68,0.00,,,0.00,0.0,WUHU216DAVISVP2,2013-09-18 10:01:00,
2013-09-18 03:06:00,61.4,51.3,29.77,NW,307,1.0,5.0,69,0.00,,,0.00,0.0,WUHU216DAVISVP2,2013-09-18 10:06:00,
2013-09-18 03:11:00,61.3,51.2,29.77,NW,307,0.0,4.0,69,0.00,,,0.00,0.0,WUHU216DAVISVP2,2013-09-18 10:11:00,
2013-09-18 03:16:00,61.1,51.0,29.77,NW,307,2.0,4.0,69,0.00,,,0.00,0.0,WUHU216DAVISVP2,2013-09-18 10:16:00,
2013-09-18 03:21:00,60.9,51.2,29.77,NW,307,2.0,4.0,70,0.00,,,0.00,0.0,WUHU216DAVISVP2,2013-09-18 10:21:00,
2013-09-18 03:26:00,60.8,51.1,29.77,NW,307,3.0,4.0,70,0.00,,,0.00,0.0,WUHU216DAVISVP2,2013-09-18 10:26:00,
2013-09-18 03:31:00,60.5,51.2,29.77,NW,307,1.0,4.0,71,0.00,,,0.00,0.0,WUHU216DAVISVP2,2013-09-18 10:31:00,
2013-09-18 03:36:00,60.3,51.0,29.77,NW,307,2.0,4.0,71,0.00,,,0.00,0.0,WUHU216DAVISVP2,2013-09-18 10:36:00,
2013-09-18 03:41:00,60.1,51.2,29.77,NW,307,1.0,4.0,72,0.00,,,0.00,0.0,WUHU216DAVISVP2,2013-09-18 10:41:00,
2013-09-18 03:46:00,60.0,51.1,29.77,NW,307,1.0,4.0,72,0.00,,,0.00,0.0,WUHU216DAVISVP2,2013-09-18 10:46:00,
2013-09-18 03:51:00,59.9,51.0,29.77,NW,307,2.0,5.0,72,0.00,,,0.00,0.0,WUHU216DAVISVP2,2013-09-18 10:51:00,
2013-09-18 03:56:00,59.9,51.0,29.77,NW,307,1.0,5.0,72,0.00,,,0.00,0.0,WUHU216DAVISVP2,2013-09-18 10:56:00,
2013-09-18 04:01:00,59.9,51.0,29.77,NW,307,0.0,5.0,72,0.00,,,0.00,0.0,WUHU216DAVISVP2,2013-09-18 11:01:00,
2013-09-18 04:06:00,59.9,51.0,29.77,NW,307,0.0,5.0,72,0.00,,,0.00,0.0,WUHU216DAVISVP2,2013-09-18 11:06:00,
2013-09-18 04:11:00,59.8,50.9,29.77,NW,307,0.0,5.0,72,0.00,,,0.00,0.0,WUHU216DAVISVP2,2013-09-18 11:11:00,
2013-09-18 04:16:00,59.3,50.8,29.78,NW,307,0.0,3.0,73,0.00,,,0.00,0.0,WUHU216DAVISVP2,2013-09-18 11:16:00,
2013-09-18 04:21:00,58.8,50.6,29.77,NW,307,0.0,2.0,74,0.00,,,0.00,0.0,WUHU216DAVISVP2,2013-09-18 11:21:00,
2013-09-18 04:26:00,58.5,50.7,29.78,NW,307,0.0,1.0,75,0.00,,,0.00,0.0,WUHU216DAVISVP2,2013-09-18 11:26:00,
2013-09-18 04:31:00,58.5,50.7,29.78,NW,307,0.0,0.0,75,0.00,,,0.00,0.0,WUHU216DAVISVP2,2013-09-18 11:31:00,
2013-09-18 04:36:00,58.1,50.3,29.77,NW,307,0.0,0.0,75,0.00,,,0.00,0.0,WUHU216DAVISVP2,2013-09-18 11:36:00,
2013-09-18 04:41:00,58.0,50.6,29.78,NW,307,0.0,0.0,76,0.00,,,0.00,0.0,WUHU216DAVISVP2,2013-09-18 11:41:00,
2013-09-18 04:46:00,57.9,50.5,29.78,NW,307,0.0,0.0,76,0.00,,,0.00,0.0,WUHU216DAVISVP2,2013-09-18 11:46:00,
2013-09-18 04:51:00,57.9,50.5,29.78,NW,307,0.0,0.0,76,0.00,,,0.00,0.0,WUHU216DAVISVP2,2013-09-18 11:51:00,
2013-09-18 04:56:00,57.8,50.7,29.78,NW,307,0.0,0.0,77,0.00,,,0.00,0.0,WUHU216DAVISVP2,2013-09-18 11:56:00,
2013-09-18 05:01:00,57.8,50.7,29.78,NW,307,0.0,0.0,77,0.00,,,0.00,0.0,WUHU216DAVISVP2,2013-09-18 12:01:00,
2013-09-18 05:06:00,57.6,50.5,29.78,NW,307,0.0,2.0,77,0.00,,,0.00,0.0,WUHU216DAVISVP2,2013-09-18 12:06:00,
2013-09-18 05:11:00,57.6,50.5,29.78,NW,307,0.0,2.0,77,0.00,,,0.00,0.0,WUHU216DAVISVP2,2013-09-18 12:11:00,
2013-09-18 05:16:00,57.6,50.9,29.78,NW,307,0.0,2.0,78,0.00,,,0.00,0.0,WUHU216DAVISVP2,2013-09-18 12:16:00,
2013-09-18 05:21:00,57.6,50.5,29.79,NW,307,0.0,2.0,77,0.00,,,0.00,0.0,WUHU216DAVISVP2,2013-09-18 12:21:00,
2013-09-18 05:26:00,57.7,50.6,29.79,NW,307,0.0,1.0,77,0.00,,,0.00,0.0,WUHU216DAVISVP2,2013-09-18 12:26:00,
2013-09-18 05:31:00,57.8,50.7,29.79,NW,307,0.0,1.0,77,0.00,,,0.00,0.0,WUHU216DAVISVP2,2013-09-18 12:31:00,
2013-09-18 05:36:00,57.8,50.7,29.79,NW,307,0.0,1.0,77,0.00,,,0.00,0.0,WUHU216DAVISVP2,2013-09-18 12:36:00,
2013-09-18 05:41:00,57.8,50.7,29.79,NW,307,0.0,1.0,77,0.00,,,0.00,0.0,WUHU216DAVISVP2,2013-09-18 12:41:00,
2013-09-18 05:46:00,57.8,50.7,29.80,NW,307,1.0,1.0,77,0.00,,,0.00,0.0,WUHU216DAVISVP2,2013-09-18 12:46:00,
2013-09-18 05:51:00,57.8,50.6,29.80,NW,307,0.0,1.0,77,0.00,,,0.00,0.0,WUHU216DAVISVP2,2013-09-18 12:51:00,
2013-09-18 05:56:00,57.7,50.9,29.80,NW,307,0.0,1.0,78,0.00,,,0.00,0.0,WUHU216DAVISVP2,2013-09-18 12:56:00,
2013-09-18 06:01:00,57.6,50.8,29.80,NW,307,0.0,1.0,78,0.00,,,0.00,0.0,WUHU216DAVISVP2,2013-09-18 13:01:00,
2013-09-18 06:06:00,57.5,50.7,29.80,NW,307,0.0,1.0,78,0.00,,,0.00,0.0,WUHU216DAVISVP2,2013-09-18 13:06:00,
2013-09-18 06:11:00,57.5,50.7,29.80,NW,307,0.0,1.0,78,0.00,,,0.00,0.0,WUHU216DAVISVP2,2013-09-18 13:11:00,
2013-09-18 06:16:00,57.4,50.6,29.81,NW,307,1.0,2.0,78,0.00,,,0.00,0.0,WUHU216DAVISVP2,2013-09-18 13:16:00,
2013-09-18 06:21:00,57.4,50.9,29.81,NW,307,0.0,2.0,79,0.00,,,0.00,0.0,WUHU216DAVISVP2,2013-09-18 13:21:00,
2013-09-18 06:26:00,57.3,50.8,29.81,NW,307,0.0,2.0,79,0.00,,,0.00,0.0,WUHU216DAVISVP2,2013-09-18 13:26:00,
2013-09-18 06:31:00,57.3,50.8,29.81,NW,307,0.0,2.0,79,0.00,,,0.00,0.0,WUHU216DAVISVP2,2013-09-18 13:31:00,
2013-09-18 06:36:00,57.2,50.7,29.82,NW,307,0.0,3.0,79,0.00,,,0.00,0.0,WUHU216DAVISVP2,2013-09-18 13:36:00,
2013-09-18 06:41:00,57.2,50.7,29.82,NW,307,0.0,3.0,79,0.00,,,0.00,0.0,WUHU216DAVISVP2,2013-09-18 13:41:00,
2013-09-18 06:46:00,57.1,50.6,29.82,NW,307,0.0,3.0,79,0.00,,,0.00,5.0,WUHU216DAVISVP2,2013-09-18 13:46:00,
2013-09-18 06:51:00,57.0,50.5,29.82,NW,307,0.0,3.0,79,0.00,,,0.00,7.0,WUHU216DAVISVP2,2013-09-18 13:51:00,
2013-09-18 06:56:00,56.9,50.5,29.83,NW,307,0.0,3.0,79,0.00,,,0.00,11.0,WUHU216DAVISVP2,2013-09-18 13:56:00,
2013-09-18 07:01:00,57.0,50.6,29.83,NW,307,0.0,2.0,79,0.00,,,0.00,16.0,WUHU216DAVISVP2,2013-09-18 14:01:00,
2013-09-18 07:06:00,57.1,50.7,29.83,NW,307,0.0,3.0,79,0.00,,,0.00,23.0,WUHU216DAVISVP2,2013-09-18 14:06:00,
2013-09-18 07:11:00,57.2,50.8,29.83,NW,307,1.0,5.0,79,0.00,,,0.00,30.0,WUHU216DAVISVP2,2013-09-18 14:11:00,
2013-09-18 07:16:00,57.5,51.1,29.84,NW,307,2.0,5.0,79,0.00,,,0.00,40.0,WUHU216DAVISVP2,2013-09-18 14:16:00,
2013-09-18 07:21:00,57.8,51.1,29.84,NW,307,0.0,5.0,78,0.00,,,0.00,53.0,WUHU216DAVISVP2,2013-09-18 14:21:00,
2013-09-18 07:26:00,58.0,51.2,29.83,NW,307,0.0,5.0,78,0.00,,,0.00,65.0,WUHU216DAVISVP2,2013-09-18 14:26:00,
2013-09-18 07:31:00,58.3,51.5,29.84,NW,307,1.0,5.0,78,0.00,,,0.00,81.0,WUHU216DAVISVP2,2013-09-18 14:31:00,
2013-09-18 07:36:00,58.6,51.5,29.84,NW,307,2.0,5.0,77,0.00,,,0.00,93.0,WUHU216DAVISVP2,2013-09-18 14:36:00,
2013-09-18 07:41:00,58.8,51.7,29.84,NW,307,1.0,4.0,77,0.00,,,0.00,109.0,WUHU216DAVISVP2,2013-09-18 14:41:00,
2013-09-18 07:46:00,59.1,51.6,29.84,NW,307,1.0,5.0,76,0.00,,,0.00,127.0,WUHU216DAVISVP2,2013-09-18 14:46:00,
2013-09-18 07:51:00,59.3,51.8,29.85,West,278,3.0,5.0,76,0.00,,,0.00,144.0,WUHU216DAVISVP2,2013-09-18 14:51:00,
2013-09-18 07:56:00,59.6,52.1,29.85,West,277,3.0,5.0,76,0.00,,,0.00,160.0,WUHU216DAVISVP2,2013-09-18 14:56:00,
2013-09-18 08:01:00,59.9,52.1,29.85,West,277,3.0,5.0,75,0.00,,,0.00,176.0,WUHU216DAVISVP2,2013-09-18 15:01:00,
2013-09-18 08:06:00,60.2,52.3,29.85,West,277,2.0,4.0,75,0.00,,,0.00,190.0,WUHU216DAVISVP2,2013-09-18 15:06:00,
2013-09-18 08:11:00,60.6,52.7,29.85,West,277,3.0,4.0,75,0.00,,,0.00,206.0,WUHU216DAVISVP2,2013-09-18 15:11:00,
2013-09-18 08:16:00,60.9,53.0,29.85,West,277,3.0,4.0,75,0.00,,,0.00,220.0,WUHU216DAVISVP2,2013-09-18 15:16:00,
2013-09-18 08:21:00,61.3,53.1,29.85,West,277,2.0,4.0,74,0.00,,,0.00,225.0,WUHU216DAVISVP2,2013-09-18 15:21:00,
2013-09-18 08:26:00,61.5,53.3,29.85,West,277,2.0,4.0,74,0.00,,,0.00,248.0,WUHU216DAVISVP2,2013-09-18 15:26:00,
2013-09-18 08:31:00,61.6,53.3,29.85,West,277,0.0,4.0,74,0.00,,,0.00,264.0,WUHU216DAVISVP2,2013-09-18 15:31:00,
2013-09-18 08:36:00,61.8,53.2,29.85,West,277,0.0,4.0,73,0.00,,,0.00,278.0,WUHU216DAVISVP2,2013-09-18 15:36:00,
2013-09-18 08:42:00,62.8,53.8,29.85,West,277,0.0,4.0,72,0.00,,,0.00,292.0,WUHU216DAVISVP2,2013-09-18 15:42:00,
2013-09-18 08:47:00,63.1,54.1,29.85,West,277,1.0,3.0,72,0.00,,,0.00,308.0,WUHU216DAVISVP2,2013-09-18 15:47:00,
2013-09-18 08:52:00,63.7,53.9,29.85,West,277,0.0,3.0,70,0.00,,,0.00,323.0,WUHU216DAVISVP2,2013-09-18 15:52:00,
2013-09-18 08:57:00,64.3,54.1,29.85,West,277,0.0,3.0,69,0.00,,,0.00,338.0,WUHU216DAVISVP2,2013-09-18 15:57:00,
2013-09-18 09:01:00,64.7,54.1,29.86,West,277,2.0,3.0,68,0.00,,,0.00,350.0,WUHU216DAVISVP2,2013-09-18 16:01:00,
2013-09-18 09:06:00,64.7,54.1,29.85,West,277,2.0,4.0,68,0.00,,,0.00,366.0,WUHU216DAVISVP2,2013-09-18 16:06:00,
2013-09-18 09:11:00,64.8,54.2,29.85,SSW,198,2.0,4.0,68,0.00,,,0.00,380.0,WUHU216DAVISVP2,2013-09-18 16:11:00,
2013-09-18 09:16:00,65.1,54.0,29.85,SSW,198,4.0,4.0,67,0.00,,,0.00,392.0,WUHU216DAVISVP2,2013-09-18 16:16:00,
2013-09-18 09:21:00,65.1,54.4,29.85,SSW,198,1.0,4.0,68,0.00,,,0.00,406.0,WUHU216DAVISVP2,2013-09-18 16:21:00,
2013-09-18 09:26:00,65.7,54.6,29.86,SW,222,2.0,4.0,67,0.00,,,0.00,420.0,WUHU216DAVISVP2,2013-09-18 16:26:00,
2013-09-18 09:31:00,65.7,54.6,29.86,SW,231,1.0,4.0,67,0.00,,,0.00,434.0,WUHU216DAVISVP2,2013-09-18 16:31:00,
2013-09-18 09:36:00,66.0,54.5,29.86,SW,225,2.0,5.0,66,0.00,,,0.00,446.0,WUHU216DAVISVP2,2013-09-18 16:36:00,
2013-09-18 09:41:00,66.3,54.8,29.86,WSW,238,1.0,6.0,66,0.00,,,0.00,461.0,WUHU216DAVISVP2,2013-09-18 16:41:00,
2013-09-18 09:46:00,67.0,55.0,29.86,ESE,119,5.0,6.0,65,0.00,,,0.00,475.0,WUHU216DAVISVP2,2013-09-18 16:46:00,
2013-09-18 09:51:00,67.3,54.9,29.86,SSW,206,3.0,6.0,64,0.00,,,0.00,485.0,WUHU216DAVISVP2,2013-09-18 16:51:00,
2013-09-18 09:56:00,67.3,54.9,29.86,SSW,200,4.0,6.0,64,0.00,,,0.00,497.0,WUHU216DAVISVP2,2013-09-18 16:56:00,
2013-09-18 10:01:00,67.5,55.1,29.86,SSW,202,2.0,7.0,64,0.00,,,0.00,515.0,WUHU216DAVISVP2,2013-09-18 17:01:00,
2013-09-18 10:06:00,67.7,55.3,29.86,SSW,198,3.0,7.0,64,0.00,,,0.00,524.0,WUHU216DAVISVP2,2013-09-18 17:06:00,
2013-09-18 10:11:00,68.2,54.9,29.85,South,190,2.0,8.0,62,0.00,,,0.00,538.0,WUHU216DAVISVP2,2013-09-18 17:11:00,
2013-09-18 10:16:00,68.6,55.7,29.85,SSE,157,0.0,8.0,63,0.00,,,0.00,550.0,WUHU216DAVISVP2,2013-09-18 17:16:00,
2013-09-18 10:21:00,68.7,54.9,29.85,South,189,1.0,8.0,61,0.00,,,0.00,561.0,WUHU216DAVISVP2,2013-09-18 17:21:00,
2013-09-18 10:26:00,68.6,54.8,29.85,South,182,2.0,8.0,61,0.00,,,0.00,571.0,WUHU216DAVISVP2,2013-09-18 17:26:00,
2013-09-18 10:31:00,69.3,55.3,29.85,SE,145,5.0,7.0,61,0.00,,,0.00,585.0,WUHU216DAVISVP2,2013-09-18 17:31:00,
2013-09-18 10:36:00,69.8,55.3,29.85,SSE,157,0.0,7.0,60,0.00,,,0.00,592.0,WUHU216DAVISVP2,2013-09-18 17:36:00,
2013-09-18 10:41:00,70.0,55.5,29.85,SSW,198,4.0,7.0,60,0.00,,,0.00,605.0,WUHU216DAVISVP2,2013-09-18 17:41:00,
2013-09-18 10:46:00,70.2,55.2,29.85,SW,220,0.0,7.0,59,0.00,,,0.00,613.0,WUHU216DAVISVP2,2013-09-18 17:46:00,
2013-09-18 10:52:00,70.9,55.4,29.85,SE,136,1.0,7.0,58,0.00,,,0.00,621.0,WUHU216DAVISVP2,2013-09-18 17:52:00,
2013-09-18 10:57:00,71.2,55.7,29.85,SE,130,3.0,7.0,58,0.00,,,0.00,628.0,WUHU216DAVISVP2,2013-09-18 17:57:00,
2013-09-18 11:02:00,71.0,55.6,29.85,SW,228,1.0,7.0,58,0.00,,,0.00,640.0,WUHU216DAVISVP2,2013-09-18 18:02:00,
2013-09-18 11:07:00,71.1,55.7,29.85,SSW,194,3.0,8.0,58,0.00,,,0.00,649.0,WUHU216DAVISVP2,2013-09-18 18:07:00,
2013-09-18 11:12:00,70.9,55.1,29.84,SSW,200,3.0,8.0,57,0.00,,,0.00,657.0,WUHU216DAVISVP2,2013-09-18 18:12:00,
2013-09-18 11:17:00,71.1,55.3,29.84,SSW,198,3.0,8.0,57,0.00,,,0.00,668.0,WUHU216DAVISVP2,2013-09-18 18:17:00,
2013-09-18 11:22:00,71.4,55.0,29.84,SSW,192,4.0,8.0,56,0.00,,,0.00,679.0,WUHU216DAVISVP2,2013-09-18 18:22:00,
2013-09-18 11:27:00,71.9,55.5,29.83,South,180,0.0,7.0,56,0.00,,,0.00,684.0,WUHU216DAVISVP2,2013-09-18 18:27:00,
2013-09-18 11:32:00,73.3,55.8,29.83,SSW,205,3.0,12.0,54,0.00,,,0.00,691.0,WUHU216DAVISVP2,2013-09-18 18:32:00,
2013-09-18 11:37:00,73.9,55.8,29.83,SE,127,2.0,12.0,53,0.00,,,0.00,696.0,WUHU216DAVISVP2,2013-09-18 18:37:00,
2013-09-18 11:42:00,73.7,55.1,29.83,South,178,3.0,12.0,52,0.00,,,0.00,703.0,WUHU216DAVISVP2,2013-09-18 18:42:00,
2013-09-18 11:47:00,73.5,54.9,29.83,SSW,213,3.0,12.0,52,0.00,,,0.00,708.0,WUHU216DAVISVP2,2013-09-18 18:47:00,
2013-09-18 11:52:00,73.9,54.7,29.83,SW,227,5.0,10.0,51,0.00,,,0.00,710.0,WUHU216DAVISVP2,2013-09-18 18:52:00,
2013-09-18 11:57:00,74.1,54.9,29.83,South,176,2.0,10.0,51,0.00,,,0.00,719.0,WUHU216DAVISVP2,2013-09-18 18:57:00,
2013-09-18 12:02:00,74.1,54.9,29.83,South,177,4.0,10.0,51,0.00,,,0.00,722.0,WUHU216DAVISVP2,2013-09-18 19:02:00,
2013-09-18 12:07:00,74.4,54.6,29.83,SE,135,3.0,10.0,50,0.00,,,0.00,729.0,WUHU216DAVISVP2,2013-09-18 19:07:00,
2013-09-18 12:12:00,75.3,56.0,29.83,SSE,156,3.0,10.0,51,0.00,,,0.00,728.0,WUHU216DAVISVP2,2013-09-18 19:12:00,
2013-09-18 12:17:00,75.9,55.4,29.83,WSW,257,5.0,10.0,49,0.00,,,0.00,731.0,WUHU216DAVISVP2,2013-09-18 19:17:00,
2013-09-18 12:22:00,75.8,55.3,29.83,WSW,256,6.0,8.0,49,0.00,,,0.00,735.0,WUHU216DAVISVP2,2013-09-18 19:22:00,
2013-09-18 12:27:00,75.6,55.2,29.83,South,180,1.0,8.0,49,0.00,,,0.00,735.0,WUHU216DAVISVP2,2013-09-18 19:27:00,
2013-09-18 12:32:00,76.3,55.2,29.82,SW,226,0.0,8.0,48,0.00,,,0.00,742.0,WUHU216DAVISVP2,2013-09-18 19:32:00,
2013-09-18 12:37:00,76.5,55.4,29.82,SW,227,2.0,8.0,48,0.00,,,0.00,738.0,WUHU216DAVISVP2,2013-09-18 19:37:00,
2013-09-18 12:42:00,76.6,56.7,29.82,South,185,1.0,7.0,50,0.00,,,0.00,740.0,WUHU216DAVISVP2,2013-09-18 19:42:00,
2013-09-18 12:47:00,77.7,55.9,29.82,WSW,241,4.0,7.0,47,0.00,,,0.00,740.0,WUHU216DAVISVP2,2013-09-18 19:47:00,
2013-09-18 12:52:00,77.3,54.9,29.82,WNW,296,1.0,6.0,46,0.00,,,0.00,745.0,WUHU216DAVISVP2,2013-09-18 19:52:00,
2013-09-18 12:57:00,77.0,54.7,29.82,WSW,251,3.0,7.0,46,0.00,,,0.00,742.0,WUHU216DAVISVP2,2013-09-18 19:57:00,
2013-09-18 13:02:00,77.1,56.0,29.81,West,259,5.0,7.0,48,0.00,,,0.00,740.0,WUHU216DAVISVP2,2013-09-18 20:02:00,
2013-09-18 13:07:00,77.0,54.6,29.81,SSW,212,6.0,9.0,46,0.00,,,0.00,740.0,WUHU216DAVISVP2,2013-09-18 20:07:00,
2013-09-18 13:12:00,77.1,54.7,29.81,West,259,7.0,9.0,46,0.00,,,0.00,742.0,WUHU216DAVISVP2,2013-09-18 20:12:00,
2013-09-18 13:17:00,77.3,54.9,29.81,SSW,204,4.0,9.0,46,0.00,,,0.00,744.0,WUHU216DAVISVP2,2013-09-18 20:17:00,
2013-09-18 13:22:00,78.0,56.1,29.80,SSW,210,4.0,9.0,47,0.00,,,0.00,738.0,WUHU216DAVISVP2,2013-09-18 20:22:00,
2013-09-18 13:27:00,78.3,55.2,29.80,SE,141,2.0,9.0,45,0.00,,,0.00,738.0,WUHU216DAVISVP2,2013-09-18 20:27:00,
2013-09-18 13:32:00,78.4,55.3,29.80,SSW,202,2.0,9.0,45,0.00,,,0.00,728.0,WUHU216DAVISVP2,2013-09-18 20:32:00,
2013-09-18 13:37:00,78.9,55.8,29.80,SSW,213,3.0,7.0,45,0.00,,,0.00,731.0,WUHU216DAVISVP2,2013-09-18 20:37:00,
2013-09-18 13:42:00,78.9,54.5,29.79,SSW,196,4.0,8.0,43,0.00,,,0.00,729.0,WUHU216DAVISVP2,2013-09-18 20:42:00,
2013-09-18 13:48:00,79.1,54.7,29.79,SSW,206,0.0,8.0,43,0.00,,,0.00,726.0,WUHU216DAVISVP2,2013-09-18 20:48:00,
2013-09-18 13:53:00,79.8,53.9,29.79,SW,229,7.0,8.0,41,0.00,,,0.00,712.0,WUHU216DAVISVP2,2013-09-18 20:53:00,
2013-09-18 13:58:00,80.2,55.0,29.78,South,191,0.0,8.0,42,0.00,,,0.00,701.0,WUHU216DAVISVP2,2013-09-18 20:58:00,
2013-09-18 14:03:00,80.7,55.4,29.78,SSW,206,4.0,8.0,42,0.00,,,0.00,694.0,WUHU216DAVISVP2,2013-09-18 21:03:00,
2013-09-18 14:08:00,80.8,54.2,29.78,South,178,4.0,8.0,40,0.00,,,0.00,700.0,WUHU216DAVISVP2,2013-09-18 21:08:00,
2013-09-18 14:13:00,80.8,54.2,29.78,SW,230,4.0,10.0,40,0.00,,,0.00,698.0,WUHU216DAVISVP2,2013-09-18 21:13:00,
2013-09-18 14:18:00,80.5,52.5,29.78,SSW,196,4.0,10.0,38,0.00,,,0.00,691.0,WUHU216DAVISVP2,2013-09-18 21:18:00,
2013-09-18 14:23:00,80.5,54.6,29.78,South,187,0.0,10.0,41,0.00,,,0.00,670.0,WUHU216DAVISVP2,2013-09-18 21:23:00,
2013-09-18 14:28:00,80.8,54.9,29.77,ENE,57,1.0,10.0,41,0.00,,,0.00,668.0,WUHU216DAVISVP2,2013-09-18 21:28:00,
2013-09-18 14:33:00,81.5,53.3,29.78,South,188,7.0,7.0,38,0.00,,,0.00,659.0,WUHU216DAVISVP2,2013-09-18 21:33:00,
2013-09-18 14:38:00,82.2,54.1,29.77,SSW,194,1.0,7.0,38,0.00,,,0.00,650.0,WUHU216DAVISVP2,2013-09-18 21:38:00,
2013-09-18 14:43:00,82.5,53.6,29.77,WNW,284,2.0,7.0,37,0.00,,,0.00,645.0,WUHU216DAVISVP2,2013-09-18 21:43:00,
2013-09-18 14:48:00,82.5,55.0,29.77,SSW,213,2.0,8.0,39,0.00,,,0.00,642.0,WUHU216DAVISVP2,2013-09-18 21:48:00,
2013-09-18 14:54:00,82.4,52.8,29.77,SSW,211,0.0,8.0,36,0.00,,,0.00,624.0,WUHU216DAVISVP2,2013-09-18 21:54:00,
2013-09-18 14:59:00,82.7,52.3,29.77,WNW,300,2.0,8.0,35,0.00,,,0.00,610.0,WUHU216DAVISVP2,2013-09-18 21:59:00,
2013-09-18 15:04:00,83.0,52.4,29.77,SSW,202,4.0,8.0,35,0.00,,,0.00,599.0,WUHU216DAVISVP2,2013-09-18 22:04:00,
2013-09-18 15:09:00,82.7,53.7,29.76,South,182,0.0,6.0,37,0.00,,,0.00,592.0,WUHU216DAVISVP2,2013-09-18 22:09:00,
2013-09-18 15:14:00,83.9,54.0,29.76,SW,221,4.0,6.0,36,0.00,,,0.00,580.0,WUHU216DAVISVP2,2013-09-18 22:14:00,
2013-09-18 15:19:00,83.8,53.1,29.76,SW,227,1.0,6.0,35,0.00,,,0.00,568.0,WUHU216DAVISVP2,2013-09-18 22:19:00,
2013-09-18 15:24:00,83.2,53.4,29.76,SSE,159,1.0,8.0,36,0.00,,,0.00,559.0,WUHU216DAVISVP2,2013-09-18 22:24:00,
2013-09-18 15:29:00,82.6,53.6,29.76,SSE,161,1.0,8.0,37,0.00,,,0.00,543.0,WUHU216DAVISVP2,2013-09-18 22:29:00,
2013-09-18 15:34:00,83.1,53.3,29.76,NW,308,3.0,8.0,36,0.00,,,0.00,541.0,WUHU216DAVISVP2,2013-09-18 22:34:00,
2013-09-18 15:39:00,83.2,53.4,29.75,West,277,6.0,8.0,36,0.00,,,0.00,524.0,WUHU216DAVISVP2,2013-09-18 22:39:00,
2013-09-18 15:44:00,83.1,52.5,29.76,NNW,328,3.0,8.0,35,0.00,,,0.00,513.0,WUHU216DAVISVP2,2013-09-18 22:44:00,
2013-09-18 15:49:00,83.1,53.3,29.75,NNW,342,3.0,8.0,36,0.00,,,0.00,504.0,WUHU216DAVISVP2,2013-09-18 22:49:00,
2013-09-18 15:54:00,83.6,53.7,29.75,WSW,244,3.0,8.0,36,0.00,,,0.00,492.0,WUHU216DAVISVP2,2013-09-18 22:54:00,
2013-09-18 15:59:00,83.8,53.9,29.75,West,267,5.0,8.0,36,0.00,,,0.00,475.0,WUHU216DAVISVP2,2013-09-18 22:59:00,
2013-09-18 16:04:00,83.1,54.0,29.75,West,281,6.0,8.0,37,0.00,,,0.00,464.0,WUHU216DAVISVP2,2013-09-18 23:04:00,
2013-09-18 16:09:00,82.7,53.7,29.75,West,268,3.0,9.0,37,0.00,,,0.00,448.0,WUHU216DAVISVP2,2013-09-18 23:09:00,
2013-09-18 16:14:00,83.1,54.0,29.75,SW,224,2.0,9.0,37,0.00,,,0.00,434.0,WUHU216DAVISVP2,2013-09-18 23:14:00,
2013-09-18 16:19:00,83.5,53.6,29.75,WNW,286,4.0,9.0,36,0.00,,,0.00,424.0,WUHU216DAVISVP2,2013-09-18 23:19:00,
2013-09-18 16:24:00,83.8,53.1,29.75,WSW,240,2.0,9.0,35,0.00,,,0.00,408.0,WUHU216DAVISVP2,2013-09-18 23:24:00,
2013-09-18 16:29:00,83.6,52.9,29.75,NNW,328,4.0,7.0,35,0.00,,,0.00,390.0,WUHU216DAVISVP2,2013-09-18 23:29:00,
2013-09-18 16:34:00,83.5,53.0,29.75,West,267,3.0,7.0,35,0.00,,,0.00,387.0,WUHU216DAVISVP2,2013-09-18 23:34:00,
2013-09-18 16:39:00,83.4,52.9,29.75,West,281,3.0,6.0,35,0.00,,,0.00,371.0,WUHU216DAVISVP2,2013-09-18 23:39:00,
2013-09-18 16:44:00,83.4,51.3,29.75,WNW,295,4.0,8.0,33,0.00,,,0.00,355.0,WUHU216DAVISVP2,2013-09-18 23:44:00,
2013-09-18 16:49:00,83.1,52.5,29.75,NW,305,5.0,8.0,35,0.00,,,0.00,341.0,WUHU216DAVISVP2,2013-09-18 23:49:00,
2013-09-18 16:54:00,83.1,52.5,29.75,NW,311,1.0,8.0,35,0.00,,,0.00,322.0,WUHU216DAVISVP2,2013-09-18 23:54:00,
2013-09-18 16:59:00,83.2,52.6,29.75,NW,306,1.0,8.0,35,0.00,,,0.00,309.0,WUHU216DAVISVP2,2013-09-18 23:59:00,
2013-09-18 17:05:00,83.4,52.8,29.75,North,351,3.0,8.0,35,0.00,,,0.00,297.0,WUHU216DAVISVP2,2013-09-19 00:05:00,
2013-09-18 17:10:00,83.6,52.9,29.75,NW,306,5.0,8.0,35,0.00,,,0.00,283.0,WUHU216DAVISVP2,2013-09-19 00:10:00,
2013-09-18 17:15:00,83.3,51.9,29.75,NW,311,2.0,8.0,34,0.00,,,0.00,269.0,WUHU216DAVISVP2,2013-09-19 00:15:00,
2013-09-18 17:20:00,83.2,51.9,29.74,NNW,327,3.0,8.0,34,0.00,,,0.00,251.0,WUHU216DAVISVP2,2013-09-19 00:20:00,
2013-09-18 17:25:00,83.4,52.1,29.75,NW,314,3.0,8.0,34,0.00,,,0.00,236.0,WUHU216DAVISVP2,2013-09-19 00:25:00,
2013-09-18 17:30:00,83.6,52.3,29.74,NW,315,2.0,7.0,34,0.00,,,0.00,220.0,WUHU216DAVISVP2,2013-09-19 00:30:00,
2013-09-18 17:35:00,83.8,52.3,29.74,WNW,298,3.0,7.0,34,0.00,,,0.00,204.0,WUHU216DAVISVP2,2013-09-19 00:35:00,
2013-09-18 17:40:00,83.7,52.2,29.75,WNW,295,5.0,6.0,34,0.00,,,0.00,185.0,WUHU216DAVISVP2,2013-09-19 00:40:00,
2013-09-18 17:45:00,83.3,51.9,29.74,WNW,301,0.0,6.0,34,0.00,,,0.00,165.0,WUHU216DAVISVP2,2013-09-19 00:45:00,
2013-09-18 17:50:00,83.4,52.0,29.75,NW,321,1.0,6.0,34,0.00,,,0.00,146.0,WUHU216DAVISVP2,2013-09-19 00:50:00,
2013-09-18 17:55:00,83.5,52.0,29.74,WNW,296,1.0,6.0,34,0.00,,,0.00,130.0,WUHU216DAVISVP2,2013-09-19 00:55:00,
2013-09-18 18:00:00,83.4,52.8,29.74,WNW,300,1.0,5.0,35,0.00,,,0.00,111.0,WUHU216DAVISVP2,2013-09-19 01:00:00,
2013-09-18 18:05:00,83.2,52.6,29.74,WNW,301,3.0,5.0,35,0.00,,,0.00,95.0,WUHU216DAVISVP2,2013-09-19 01:05:00,
2013-09-18 18:10:00,83.0,52.4,29.74,West,267,6.0,7.0,35,0.00,,,0.00,81.0,WUHU216DAVISVP2,2013-09-19 01:10:00,
2013-09-18 18:15:00,82.5,52.9,29.74,West,268,3.0,7.0,36,0.00,,,0.00,69.0,WUHU216DAVISVP2,2013-09-19 01:15:00,
2013-09-18 18:20:00,82.4,52.8,29.74,WNW,290,5.0,7.0,36,0.00,,,0.00,54.0,WUHU216DAVISVP2,2013-09-19 01:20:00,
2013-09-18 18:25:00,82.1,52.4,29.74,WNW,291,2.0,7.0,36,0.00,,,0.00,44.0,WUHU216DAVISVP2,2013-09-19 01:25:00,
2013-09-18 18:30:00,82.0,53.1,29.74,WNW,291,0.0,5.0,37,0.00,,,0.00,35.0,WUHU216DAVISVP2,2013-09-19 01:30:00,
2013-09-18 18:35:00,82.0,52.3,29.74,WNW,291,1.0,5.0,36,0.00,,,0.00,26.0,WUHU216DAVISVP2,2013-09-19 01:35:00,
2013-09-18 18:40:00,81.8,53.0,29.74,WNW,291,1.0,4.0,37,0.00,,,0.00,19.0,WUHU216DAVISVP2,2013-09-19 01:40:00,
2013-09-18 18:45:00,81.6,52.7,29.74,WNW,291,0.0,4.0,37,0.00,,,0.00,16.0,WUHU216DAVISVP2,2013-09-19 01:45:00,
2013-09-18 18:50:00,81.3,53.3,29.74,WNW,291,0.0,4.0,38,0.00,,,0.00,12.0,WUHU216DAVISVP2,2013-09-19 01:50:00,
2013-09-18 18:55:00,80.9,52.8,29.74,WNW,291,1.0,4.0,38,0.00,,,0.00,7.0,WUHU216DAVISVP2,2013-09-19 01:55:00,
2013-09-18 19:00:00,80.6,53.3,29.74,WNW,291,0.0,4.0,39,0.00,,,0.00,5.0,WUHU216DAVISVP2,2013-09-19 02:00:00,
2013-09-18 19:05:00,80.4,53.2,29.74,WNW,291,0.0,2.0,39,0.00,,,0.00,0.0,WUHU216DAVISVP2,2013-09-19 02:05:00,
2013-09-18 19:10:00,80.1,52.8,29.75,WNW,291,1.0,2.0,39,0.00,,,0.00,0.0,WUHU216DAVISVP2,2013-09-19 02:10:00,
2013-09-18 19:15:00,79.8,53.3,29.75,WNW,290,0.0,2.0,40,0.00,,,0.00,0.0,WUHU216DAVISVP2,2013-09-19 02:15:00,
2013-09-18 19:20:00,79.5,53.0,29.75,WNW,291,0.0,1.0,40,0.00,,,0.00,0.0,WUHU216DAVISVP2,2013-09-19 02:20:00,
2013-09-18 19:25:00,79.3,53.5,29.75,WNW,291,0.0,1.0,41,0.00,,,0.00,0.0,WUHU216DAVISVP2,2013-09-19 02:25:00,
2013-09-18 19:30:00,79.2,53.4,29.75,WNW,290,0.0,1.0,41,0.00,,,0.00,0.0,WUHU216DAVISVP2,2013-09-19 02:30:00,
2013-09-18 19:35:00,79.0,53.2,29.75,WNW,291,0.0,1.0,41,0.00,,,0.00,0.0,WUHU216DAVISVP2,2013-09-19 02:35:00,
2013-09-18 19:40:00,78.7,53.6,29.76,WNW,291,0.0,1.0,42,0.00,,,0.00,0.0,WUHU216DAVISVP2,2013-09-19 02:40:00,
2013-09-18 19:45:00,78.3,53.9,29.76,WNW,291,0.0,1.0,43,0.00,,,0.00,0.0,WUHU216DAVISVP2,2013-09-19 02:45:00,
2013-09-18 19:50:00,77.5,53.9,29.76,WNW,291,0.0,1.0,44,0.00,,,0.00,0.0,WUHU216DAVISVP2,2013-09-19 02:50:00,
2013-09-18 19:55:00,77.1,53.5,29.76,WNW,291,0.0,0.0,44,0.00,,,0.00,0.0,WUHU216DAVISVP2,2013-09-19 02:55:00,
2013-09-18 20:00:00,77.0,54.0,29.76,WNW,291,0.0,1.0,45,0.00,,,0.00,0.0,WUHU216DAVISVP2,2013-09-19 03:00:00,
2013-09-18 20:05:00,76.9,53.9,29.77,WNW,291,0.0,1.0,45,0.00,,,0.00,0.0,WUHU216DAVISVP2,2013-09-19 03:05:00,
2013-09-18 20:10:00,76.8,53.9,29.77,WNW,290,0.0,1.0,45,0.00,,,0.00,0.0,WUHU216DAVISVP2,2013-09-19 03:10:00,
2013-09-18 20:15:00,76.7,53.1,29.78,WNW,291,0.0,2.0,44,0.00,,,0.00,0.0,WUHU216DAVISVP2,2013-09-19 03:15:00,
2013-09-18 20:20:00,76.5,52.3,29.78,WNW,291,0.0,2.0,43,0.00,,,0.00,0.0,WUHU216DAVISVP2,2013-09-19 03:20:00,
2013-09-18 20:25:00,76.4,52.2,29.78,WNW,290,1.0,2.0,43,0.00,,,0.00,0.0,WUHU216DAVISVP2,2013-09-19 03:25:00,
2013-09-18 20:31:00,76.2,52.7,29.78,WNW,291,0.0,2.0,44,0.00,,,0.00,0.0,WUHU216DAVISVP2,2013-09-19 03:31:00,
2013-09-18 20:36:00,76.0,52.5,29.78,WNW,291,0.0,2.0,44,0.00,,,0.00,0.0,WUHU216DAVISVP2,2013-09-19 03:36:00,
2013-09-18 20:41:00,75.8,52.3,29.78,WNW,291,0.0,1.0,44,0.00,,,0.00,0.0,WUHU216DAVISVP2,2013-09-19 03:41:00,
2013-09-18 20:46:00,75.6,52.8,29.78,WNW,291,0.0,0.0,45,0.00,,,0.00,0.0,WUHU216DAVISVP2,2013-09-19 03:46:00,
2013-09-18 20:51:00,75.5,53.3,29.78,WNW,291,0.0,0.0,46,0.00,,,0.00,0.0,WUHU216DAVISVP2,2013-09-19 03:51:00,
2013-09-18 20:56:00,75.1,53.5,29.78,WNW,291,0.0,0.0,47,0.00,,,0.00,0.0,WUHU216DAVISVP2,2013-09-19 03:56:00,
2013-09-18 21:01:00,74.6,53.6,29.78,WNW,291,0.0,0.0,48,0.00,,,0.00,0.0,WUHU216DAVISVP2,2013-09-19 04:01:00,
2013-09-18 21:06:00,74.2,53.3,29.78,WNW,291,0.0,0.0,48,0.00,,,0.00,0.0,WUHU216DAVISVP2,2013-09-19 04:06:00,
2013-09-18 21:08:00,74.1,52.6,29.78,WNW,291,0.0,0.0,47,0.00,,,0.00,0.0,WUHU216DAVISVP2,2013-09-19 04:08:00,
2013-09-18 21:13:00,74.2,52.7,29.78,WNW,291,0.0,0.0,47,0.00,,,0.00,0.0,WUHU216DAVISVP2,2013-09-19 04:13:00,
2013-09-18 21:18:00,74.3,52.8,29.79,WNW,290,0.0,0.0,47,0.00,,,0.00,0.0,WUHU216DAVISVP2,2013-09-19 04:18:00,
2013-09-18 21:23:00,74.1,53.2,29.79,WNW,290,0.0,0.0,48,0.00,,,0.00,0.0,WUHU216DAVISVP2,2013-09-19 04:23:00,
2013-09-18 21:28:00,73.9,52.4,29.79,WNW,291,0.0,0.0,47,0.00,,,0.00,0.0,WUHU216DAVISVP2,2013-09-19 04:28:00,
2013-09-18 21:33:00,73.8,52.3,29.78,WNW,291,0.0,1.0,47,0.00,,,0.00,0.0,WUHU216DAVISVP2,2013-09-19 04:33:00,
2013-09-18 21:38:00,73.7,52.2,29.78,WNW,291,0.0,2.0,47,0.00,,,0.00,0.0,WUHU216DAVISVP2,2013-09-19 04:38:00,
2013-09-18 21:43:00,73.5,52.1,29.79,WNW,291,0.0,3.0,47,0.00,,,0.00,0.0,WUHU216DAVISVP2,2013-09-19 04:43:00,
2013-09-18 21:48:00,73.2,51.8,29.79,WNW,291,0.0,3.0,47,0.00,,,0.00,0.0,WUHU216DAVISVP2,2013-09-19 04:48:00,
2013-09-18 21:53:00,73.0,52.1,29.79,WNW,291,0.0,3.0,48,0.00,,,0.00,0.0,WUHU216DAVISVP2,2013-09-19 04:53:00,
2013-09-18 21:58:00,72.7,51.9,29.79,WNW,290,0.0,3.0,48,0.00,,,0.00,0.0,WUHU216DAVISVP2,2013-09-19 04:58:00,
2013-09-18 22:03:00,72.4,51.6,29.79,WNW,291,0.0,3.0,48,0.00,,,0.00,0.0,WUHU216DAVISVP2,2013-09-19 05:03:00,
2013-09-18 22:08:00,72.2,52.0,29.79,WNW,291,0.0,1.0,49,0.00,,,0.00,0.0,WUHU216DAVISVP2,2013-09-19 05:08:00,
2013-09-18 22:13:00,72.0,52.4,29.79,WNW,291,0.0,0.0,50,0.00,,,0.00,0.0,WUHU216DAVISVP2,2013-09-19 05:13:00,
2013-09-18 22:18:00,71.8,52.2,29.79,WNW,291,0.0,0.0,50,0.00,,,0.00,0.0,WUHU216DAVISVP2,2013-09-19 05:18:00,
2013-09-18 22:23:00,71.3,52.3,29.78,WNW,291,0.0,1.0,51,0.00,,,0.00,0.0,WUHU216DAVISVP2,2013-09-19 05:23:00,
2013-09-18 22:28:00,70.7,52.8,29.78,WNW,291,0.0,1.0,53,0.00,,,0.00,0.0,WUHU216DAVISVP2,2013-09-19 05:28:00,
2013-09-18 22:33:00,70.0,52.1,29.78,WNW,290,0.0,1.0,53,0.00,,,0.00,0.0,WUHU216DAVISVP2,2013-09-19 05:33:00,
2013-09-18 22:38:00,69.7,52.8,29.78,WNW,290,0.0,1.0,55,0.00,,,0.00,0.0,WUHU216DAVISVP2,2013-09-19 05:38:00,
2013-09-18 22:43:00,69.3,52.4,29.78,WNW,291,0.0,1.0,55,0.00,,,0.00,0.0,WUHU216DAVISVP2,2013-09-19 05:43:00,
2013-09-18 22:48:00,69.0,52.6,29.78,WNW,290,0.0,0.0,56,0.00,,,0.00,0.0,WUHU216DAVISVP2,2013-09-19 05:48:00,
2013-09-18 22:53:00,68.7,53.0,29.78,WNW,290,0.0,0.0,57,0.00,,,0.00,0.0,WUHU216DAVISVP2,2013-09-19 05:53:00,
2013-09-18 22:58:00,68.4,52.6,29.78,WNW,291,0.0,0.0,57,0.00,,,0.00,0.0,WUHU216DAVISVP2,2013-09-19 05:58:00,
2013-09-18 23:03:00,68.0,52.7,29.78,WNW,290,0.0,0.0,58,0.00,,,0.00,0.0,WUHU216DAVISVP2,2013-09-19 06:03:00,
2013-09-18 23:08:00,67.7,52.9,29.78,WNW,291,0.0,0.0,59,0.00,,,0.00,0.0,WUHU216DAVISVP2,2013-09-19 06:08:00,
2013-09-18 23:13:00,67.6,53.2,29.78,WNW,291,0.0,0.0,60,0.00,,,0.00,0.0,WUHU216DAVISVP2,2013-09-19 06:13:00,
2013-09-18 23:18:00,67.4,53.5,29.78,WNW,290,0.0,0.0,61,0.00,,,0.00,0.0,WUHU216DAVISVP2,2013-09-19 06:18:00,
2013-09-18 23:23:00,67.2,53.9,29.79,WNW,290,0.0,0.0,62,0.00,,,0.00,0.0,WUHU216DAVISVP2,2013-09-19 06:23:00,
2013-09-18 23:28:00,67.0,53.7,29.79,WNW,291,0.0,0.0,62,0.00,,,0.00,0.0,WUHU216DAVISVP2,2013-09-19 06:28:00,
2013-09-18 23:33:00,66.8,53.5,29.79,WNW,290,0.0,0.0,62,0.00,,,0.00,0.0,WUHU216DAVISVP2,2013-09-19 06:33:00,
2013-09-18 23:38:00,66.6,53.3,29.79,WNW,290,0.0,0.0,62,0.00,,,0.00,0.0,WUHU216DAVISVP2,2013-09-19 06:38:00,
2013-09-18 23:43:00,66.5,54.1,29.79,WNW,291,0.0,0.0,64,0.00,,,0.00,0.0,WUHU216DAVISVP2,2013-09-19 06:43:00,
2013-09-18 23:48:00,66.4,54.0,29.79,WNW,290,0.0,0.0,64,0.00,,,0.00,0.0,WUHU216DAVISVP2,2013-09-19 06:48:00,
2013-09-18 23:53:00,66.3,54.4,29.79,WNW,291,0.0,0.0,65,0.00,,,0.00,0.0,WUHU216DAVISVP2,2013-09-19 06:53:00,
2013-09-18 23:58:00,66.3,53.9,29.79,WNW,290,0.0,0.0,64,0.00,,,0.00,0.0,WUHU216DAVISVP2,2013-09-19 06:58:00,